Time,TemperatureF,DewpointF,PressureIn,WindDirection,WindDirectionDegrees,WindSpeedMPH,WindSpeedGustMPH,Humidity,HourlyPrecipIn,Conditions,Clouds,dailyrainin,SoftwareType,DateUTC
2013-07-06 00:05:00,60.6,51.1,29.71,West,270,10.9,-999.0,71,-99.99,,,0.00,Acu-Link.com,2013-07-06 07:05:00,
2013-07-06 00:20:00,60.8,50.6,29.70,West,270,10.4,-999.0,69,-99.99,,,0.00,Acu-Link.com,2013-07-06 07:20:00,
2013-07-06 00:36:00,60.8,50.6,29.71,WNW,292,8.9,-999.0,69,-99.99,,,0.00,Acu-Link.com,2013-07-06 07:36:00,
2013-07-06 00:51:00,60.3,51.2,29.71,West,270,8.9,-999.0,72,-99.99,,,0.00,Acu-Link.com,2013-07-06 07:51:00,
2013-07-06 01:06:00,60.1,51.0,29.71,WNW,292,7.3,-999.0,72,-99.99,,,0.00,Acu-Link.com,2013-07-06 08:06:00,
2013-07-06 01:22:00,59.9,51.2,29.71,West,270,9.4,-999.0,73,-99.99,,,0.00,Acu-Link.com,2013-07-06 08:22:00,
2013-07-06 01:37:00,59.0,51.1,29.71,NW,315,6.8,-999.0,75,-99.99,,,0.00,Acu-Link.com,2013-07-06 08:37:00,
2013-07-06 01:52:00,59.4,50.7,29.71,West,270,10.4,-999.0,73,-99.99,,,0.00,Acu-Link.com,2013-07-06 08:52:00,
2013-07-06 02:07:00,58.8,50.9,29.72,NW,315,5.3,-999.0,75,-99.99,,,0.00,Acu-Link.com,2013-07-06 09:07:00,
2013-07-06 02:22:00,58.8,51.3,29.73,West,270,9.9,-999.0,76,-99.99,,,0.00,Acu-Link.com,2013-07-06 09:22:00,
2013-07-06 02:38:00,58.5,51.3,29.73,WNW,292,8.3,-999.0,77,-99.99,,,0.00,Acu-Link.com,2013-07-06 09:38:00,
2013-07-06 02:53:00,58.3,51.1,29.73,North,0,6.3,-999.0,77,-99.99,,,0.00,Acu-Link.com,2013-07-06 09:53:00,
2013-07-06 03:09:00,57.7,51.2,29.73,West,270,7.8,-999.0,79,-99.99,,,0.00,Acu-Link.com,2013-07-06 10:09:00,
2013-07-06 03:24:00,57.0,50.9,29.73,West,270,4.2,-999.0,80,-99.99,,,0.00,Acu-Link.com,2013-07-06 10:24:00,
2013-07-06 03:39:00,56.3,51.2,29.73,West,270,1.7,-999.0,83,-99.99,,,0.00,Acu-Link.com,2013-07-06 10:39:00,
2013-07-06 03:55:00,56.8,50.7,29.74,WNW,292,4.2,-999.0,80,-99.99,,,0.00,Acu-Link.com,2013-07-06 10:55:00,
2013-07-06 04:10:00,57.9,50.7,29.73,West,270,5.8,-999.0,77,-99.99,,,0.00,Acu-Link.com,2013-07-06 11:10:00,
2013-07-06 04:26:00,57.2,50.4,29.74,West,270,1.7,-999.0,78,-99.99,,,0.00,Acu-Link.com,2013-07-06 11:26:00,
2013-07-06 04:41:00,54.7,50.3,29.74,SSE,157,2.7,-999.0,85,-99.99,,,0.00,Acu-Link.com,2013-07-06 11:41:00,
2013-07-06 04:56:00,54.3,50.2,29.75,SW,225,1.7,-999.0,86,-99.99,,,0.00,Acu-Link.com,2013-07-06 11:56:00,
2013-07-06 05:12:00,53.4,49.9,29.75,SW,225,2.2,-999.0,88,-99.99,,,0.00,Acu-Link.com,2013-07-06 12:12:00,
2013-07-06 05:27:00,53.6,50.1,29.75,WSW,247,1.7,-999.0,88,-99.99,,,0.00,Acu-Link.com,2013-07-06 12:27:00,
2013-07-06 05:42:00,53.6,50.4,29.75,NNE,22,0.0,-999.0,89,-99.99,,,0.00,Acu-Link.com,2013-07-06 12:42:00,
2013-07-06 05:57:00,53.4,50.8,29.75,NE,45,0.0,-999.0,91,-99.99,,,0.00,Acu-Link.com,2013-07-06 12:57:00,
2013-07-06 06:12:00,53.2,50.3,29.75,NNW,337,0.0,-999.0,90,-99.99,,,0.00,Acu-Link.com,2013-07-06 13:12:00,
2013-07-06 06:27:00,53.6,51.0,29.76,North,0,0.0,-999.0,91,-99.99,,,0.00,Acu-Link.com,2013-07-06 13:27:00,
2013-07-06 06:43:00,54.9,52.3,29.76,SSW,202,0.0,-999.0,91,-99.99,,,0.00,Acu-Link.com,2013-07-06 13:43:00,
2013-07-06 06:58:00,57.6,53.4,29.76,South,180,0.0,-999.0,86,-99.99,,,0.00,Acu-Link.com,2013-07-06 13:58:00,
2013-07-06 07:14:00,60.6,53.7,29.77,SW,225,2.7,-999.0,78,-99.99,,,0.00,Acu-Link.com,2013-07-06 14:14:00,
2013-07-06 07:29:00,64.0,53.2,29.76,WSW,247,4.2,-999.0,68,-99.99,,,0.00,Acu-Link.com,2013-07-06 14:29:00,
2013-07-06 07:44:00,65.7,54.0,29.77,West,270,4.7,-999.0,66,-99.99,,,0.00,Acu-Link.com,2013-07-06 14:44:00,
2013-07-06 07:59:00,67.5,56.1,29.77,West,270,2.7,-999.0,67,-99.99,,,0.00,Acu-Link.com,2013-07-06 14:59:00,
2013-07-06 08:15:00,68.7,55.6,29.77,West,270,2.7,-999.0,63,-99.99,,,0.00,Acu-Link.com,2013-07-06 15:15:00,
2013-07-06 08:30:00,69.6,54.2,29.78,WNW,292,7.3,-999.0,58,-99.99,,,0.00,Acu-Link.com,2013-07-06 15:30:00,
2013-07-06 08:45:00,71.8,54.2,29.77,WSW,247,7.3,-999.0,54,-99.99,,,0.00,Acu-Link.com,2013-07-06 15:45:00,
2013-07-06 09:00:00,72.9,55.8,29.77,WSW,247,5.8,-999.0,55,-99.99,,,0.00,Acu-Link.com,2013-07-06 16:00:00,
2013-07-06 09:16:00,74.3,56.0,29.77,West,270,4.2,-999.0,53,-99.99,,,0.00,Acu-Link.com,2013-07-06 16:16:00,
2013-07-06 10:01:00,82.8,56.0,29.76,West,270,1.1,-999.0,40,-99.99,,,0.00,Acu-Link.com,2013-07-06 17:01:00,
2013-07-06 10:16:00,85.5,54.7,29.75,SE,135,2.2,-999.0,35,-99.99,,,0.00,Acu-Link.com,2013-07-06 17:16:00,
2013-07-06 10:32:00,83.3,55.7,29.75,SW,225,5.8,-999.0,39,-99.99,,,0.00,Acu-Link.com,2013-07-06 17:32:00,
2013-07-06 11:02:00,84.4,57.4,29.74,East,90,4.7,-999.0,40,-99.99,,,0.00,Acu-Link.com,2013-07-06 18:02:00,
2013-07-06 11:49:00,85.3,57.5,29.74,West,270,5.8,-999.0,39,-99.99,,,0.00,Acu-Link.com,2013-07-06 18:49:00,
2013-07-06 12:35:00,91.9,60.3,29.72,WSW,247,1.7,-999.0,35,-99.99,,,0.00,Acu-Link.com,2013-07-06 19:35:00,
2013-07-06 12:50:00,95.5,59.1,29.72,SE,135,1.1,-999.0,30,-99.99,,,0.00,Acu-Link.com,2013-07-06 19:50:00,
2013-07-06 13:05:00,95.2,57.9,29.71,ENE,67,1.7,-999.0,29,-99.99,,,0.00,Acu-Link.com,2013-07-06 20:05:00,
2013-07-06 13:20:00,98.1,55.1,29.71,ESE,112,1.1,-999.0,24,-99.99,,,0.00,Acu-Link.com,2013-07-06 20:20:00,
2013-07-06 13:51:00,99.0,55.8,29.70,West,270,2.2,-999.0,24,-99.99,,,0.00,Acu-Link.com,2013-07-06 20:51:00,
2013-07-06 14:06:00,97.2,58.6,29.69,SW,225,3.2,-999.0,28,-99.99,,,0.00,Acu-Link.com,2013-07-06 21:06:00,
2013-07-06 14:22:00,95.0,53.6,29.69,ENE,67,1.7,-999.0,25,-99.99,,,0.00,Acu-Link.com,2013-07-06 21:22:00,
2013-07-06 14:37:00,96.3,52.4,29.69,WNW,292,1.7,-999.0,23,-99.99,,,0.00,Acu-Link.com,2013-07-06 21:37:00,
2013-07-06 15:08:00,102.7,55.2,29.68,ENE,67,1.7,-999.0,21,-99.99,,,0.00,Acu-Link.com,2013-07-06 22:08:00,
2013-07-06 15:38:00,100.8,53.6,29.67,NNE,22,2.7,-999.0,21,-99.99,,,0.00,Acu-Link.com,2013-07-06 22:38:00,
2013-07-06 15:54:00,100.2,54.4,29.67,NNE,22,1.7,-999.0,22,-99.99,,,0.00,Acu-Link.com,2013-07-06 22:54:00,
2013-07-06 16:25:00,99.5,53.9,29.66,NW,315,4.7,-999.0,22,-99.99,,,0.00,Acu-Link.com,2013-07-06 23:25:00,
2013-07-06 17:26:00,99.1,54.7,29.64,East,90,0.0,-999.0,23,-99.99,,,0.00,Acu-Link.com,2013-07-07 00:26:00,
2013-07-06 17:41:00,91.4,54.6,29.64,WNW,292,2.7,-999.0,29,-99.99,,,0.00,Acu-Link.com,2013-07-07 00:41:00,
2013-07-06 18:26:00,85.1,52.7,29.63,SSW,202,2.7,-999.0,33,-99.99,,,0.00,Acu-Link.com,2013-07-07 01:26:00,
2013-07-06 18:42:00,84.4,53.7,29.63,North,0,1.7,-999.0,35,-99.99,,,0.00,Acu-Link.com,2013-07-07 01:42:00,
2013-07-06 19:12:00,82.8,56.0,29.62,NW,315,0.0,-999.0,40,-99.99,,,0.00,Acu-Link.com,2013-07-07 02:12:00,
2013-07-06 19:28:00,82.2,55.4,29.63,West,270,1.1,-999.0,40,-99.99,,,0.00,Acu-Link.com,2013-07-07 02:28:00,
2013-07-06 19:44:00,81.0,57.6,29.63,North,0,0.0,-999.0,45,-99.99,,,0.00,Acu-Link.com,2013-07-07 02:44:00,
2013-07-06 19:59:00,79.7,52.5,29.63,NE,45,0.0,-999.0,39,-99.99,,,0.00,Acu-Link.com,2013-07-07 02:59:00,
2013-07-06 20:14:00,78.3,58.7,29.62,NNE,22,0.0,-999.0,51,-99.99,,,0.00,Acu-Link.com,2013-07-07 03:14:00,
2013-07-06 20:30:00,75.9,62.8,29.62,NE,45,0.0,-999.0,64,-99.99,,,0.00,Acu-Link.com,2013-07-07 03:30:00,
2013-07-06 20:45:00,73.4,61.3,29.63,North,0,0.0,-999.0,66,-99.99,,,0.00,Acu-Link.com,2013-07-07 03:45:00,
2013-07-06 21:00:00,70.7,60.8,29.63,NNE,22,0.0,-999.0,71,-99.99,,,0.00,Acu-Link.com,2013-07-07 04:00:00,
2013-07-06 21:16:00,68.7,58.1,29.64,North,0,0.0,-999.0,69,-99.99,,,0.00,Acu-Link.com,2013-07-07 04:16:00,
2013-07-06 21:31:00,67.3,56.0,29.64,NNE,22,0.0,-999.0,67,-99.99,,,0.00,Acu-Link.com,2013-07-07 04:31:00,
2013-07-06 21:46:00,66.4,55.9,29.65,NNW,337,0.0,-999.0,69,-99.99,,,0.00,Acu-Link.com,2013-07-07 04:46:00,
2013-07-06 22:01:00,65.1,54.3,29.65,NW,315,0.0,-999.0,68,-99.99,,,0.00,Acu-Link.com,2013-07-07 05:01:00,
2013-07-06 22:17:00,64.9,54.1,29.65,NNW,337,1.7,-999.0,68,-99.99,,,0.00,Acu-Link.com,2013-07-07 05:17:00,
2013-07-06 22:32:00,64.4,54.0,29.66,NNW,337,2.2,-999.0,69,-99.99,,,0.00,Acu-Link.com,2013-07-07 05:32:00,
2013-07-06 22:47:00,63.9,54.3,29.66,ENE,67,0.0,-999.0,71,-99.99,,,0.00,Acu-Link.com,2013-07-07 05:47:00,
2013-07-06 23:03:00,63.0,51.9,29.66,NW,315,0.0,-999.0,67,-99.99,,,0.00,Acu-Link.com,2013-07-07 06:03:00,
2013-07-06 23:18:00,62.8,52.9,29.66,NNE,22,0.0,-999.0,70,-99.99,,,0.00,Acu-Link.com,2013-07-07 06:18:00,
2013-07-06 23:33:00,61.9,52.8,29.67,NNW,337,1.1,-999.0,72,-99.99,,,0.00,Acu-Link.com,2013-07-07 06:33:00,
2013-07-06 23:48:00,60.8,54.6,29.67,NNE,22,1.1,-999.0,80,-99.99,,,0.00,Acu-Link.com,2013-07-07 06:48:00,